GW4148 Weather Reports


Display with metric or nautical units.
time (UTC)temp
F
wind
direction
speed
MPH
gust
MPH
rain 1hr
in
rain 24hr
in
rain mn
in
humidity
%
barometer
mb
20260507153003 74 30 6.0 12.0 0.00 0.00 0.00 78 1021.0
20260507151506 73 53 6.0 13.0 0.00 0.00 0.00 79 1021.0
20260507150010 72 55 6.0 15.0 0.00 0.00 0.00 81 1021.1
20260507144514 72 18 7.0 14.0 0.00 0.00 0.00 80 1020.9
20260507143032 72 345 4.0 11.0 0.00 0.00 0.00 82 1021.2
20260507141503 72 346 3.0 8.0 0.00 0.00 0.00 82 1021.3
20260507140007 72 4 4.0 9.0 0.00 0.00 0.00 80 1021.3
20260507134509 72 31 4.0 10.0 0.00 0.00 0.00 79 1020.9
20260507133016 72 56 4.0 8.0 0.00 0.00 0.00 80 1020.7
20260507131520 72 57 4.0 11.0 0.00 0.00 0.00 80 1020.5
20260507130005 71 142 1.0 4.0 0.00 0.00 0.00 82 1020.2
20260507124507 69 77 1.0 6.0 0.00 0.00 0.00 83 1020.1
20260507123011 69 77 0.0 4.0 0.00 0.00 0.00 86 1020.0
20260507121517 68 70 0.0 2.0 0.00 0.00 0.00 86 1019.9
20260507120020 67 153 2.0 3.0 0.00 0.00 0.00 88 1019.9
20260507114528 66 84 0.0 4.0 0.00 0.00 0.00 88 1019.8
20260507113008 65 76 1.0 4.0 0.00 0.00 0.00 89 1019.7
20260507111512 66 63 1.0 4.0 0.00 0.00 0.00 88 1019.5
20260507110021 67 84 1.0 2.0 0.00 0.00 0.00 88 1019.3
20260507104525 66 33 0.0 2.0 0.00 0.00 0.00 87 1019.1
20260507103025 66 75 0.0 2.0 0.00 0.00 0.00 87 1019.1
20260507101512 67 91 1.0 3.0 0.00 0.00 0.00 87 1019.0
20260507100013 68 65 1.0 5.0 0.00 0.00 0.00 87 1018.9
20260507094521 68 32 2.0 7.0 0.00 0.00 0.00 87 1018.8
20260507093024 68 61 3.0 7.0 0.00 0.00 0.00 87 1018.8
20260507091533 67 52 2.0 11.0 0.00 0.00 0.00 87 1018.8
20260507090013 67 113 1.0 4.0 0.00 0.00 0.00 87 1018.8
20260507084518 67 78 0.0 3.0 0.00 0.00 0.00 87 1018.9
20260507083021 68 91 1.0 6.0 0.00 0.00 0.00 86 1018.9
20260507081525 68 74 1.0 5.0 0.00 0.00 0.00 85 1019.2
20260507080028 67 64 4.0 7.0 0.00 0.00 0.00 86 1019.3
20260507074516 68 59 1.0 5.0 0.00 0.00 0.00 86 1019.5
20260507073018 68 62 1.0 6.0 0.00 0.00 0.00 85 1019.5
20260507071532 68 60 2.0 5.0 0.00 0.00 0.00 85 1019.7
20260507070011 68 102 0.0 4.0 0.00 0.00 0.00 85 1019.9
20260507064519 68 59 0.0 3.0 0.00 0.00 0.00 86 1020.2
20260507063019 68 82 3.0 6.0 0.00 0.00 0.00 86 1020.3
20260507061521 68 358 2.0 6.0 0.00 0.00 0.00 86 1020.3
20260507060004 68 80 2.0 4.0 0.00 0.00 0.00 88 1020.5
20260507054508 68 89 0.0 2.0 0.00 0.00 0.00 88 1020.8
20260507053012 68 61 2.0 5.0 0.00 0.00 0.00 87 1020.9
20260507051522 69 68 4.0 8.0 0.00 0.00 0.00 86 1021.0
20260507050035 69 100 2.0 9.0 0.00 0.00 0.00 85 1021.3
20260507044508 69 68 3.0 9.0 0.00 0.00 0.00 86 1021.4
20260507043012 68 46 6.0 10.0 0.00 0.00 0.00 87 1021.4
20260507041523 68 43 4.0 8.0 0.00 0.00 0.00 88 1021.5
20260507040021 68 62 4.0 9.0 0.00 0.00 0.00 88 1021.4
20260507034524 69 56 3.0 8.0 0.00 0.00 0.00 88 1021.6
20260507033008 69 15 4.0 8.0 0.00 0.00 0.00 88 1021.3
20260507031510 69 41 2.0 9.0 0.00 0.00 0.00 88 1021.3
20260507030026 69 70 3.0 8.0 0.00 0.00 0.00 88 1021.1
20260507024527 69 66 4.0 12.0 0.00 0.00 0.00 88 1021.1
20260507023027 69 39 2.0 9.0 0.00 0.00 0.00 88 1020.8
20260507021526 69 20 4.0 6.0 0.00 0.00 0.00 89 1020.8
20260507020014 69 27 2.0 7.0 0.00 0.00 0.00 89 1020.8
20260507014520 69 25 4.0 9.0 0.00 0.00 0.00 89 1020.8
20260507013023 69 86 1.0 7.0 0.00 0.00 0.00 89 1020.7
20260507011526 69 19 5.0 10.0 0.00 0.00 0.00 89 1020.5
20260507010034 69 14 5.0 9.0 0.00 0.00 0.00 90 1020.4
20260507004520 69 30 7.0 10.0 0.00 0.00 0.00 90 1020.3
20260507003023 69 27 4.0 10.0 0.00 0.00 0.00 89 1020.2
20260507001524 69 16 5.0 11.0 0.00 0.00 0.00 88 1019.9
20260507000012 69 46 2.0 7.0 0.00 0.00 0.00 88 1019.8
20260506234517 69 331 2.0 7.0 0.00 0.00 0.00 88 1019.7
20260506233017 70 36 5.0 14.0 0.00 0.00 0.00 87 1019.4
20260506231523 70 60 6.0 11.0 0.00 0.01 0.00 86 1019.4
20260506230027 70 72 6.0 11.0 0.00 0.02 0.00 86 1019.4
20260506224512 70 48 7.0 13.0 0.00 0.04 0.00 86 1019.2
20260506223018 70 39 6.0 11.0 0.00 0.04 0.00 87 1018.9
20260506221521 70 75 6.0 16.0 0.00 0.06 0.00 86 1018.6
20260506220034 70 332 7.0 17.0 0.00 0.06 0.00 86 1018.5
20260506214527 70 13 7.0 17.0 0.00 0.06 0.00 86 1018.5
20260506213028 71 28 7.0 19.0 0.00 0.06 0.00 86 1018.5
20260506211515 71 335 6.0 18.0 0.00 0.06 0.00 86 1018.5
20260506210028 71 49 9.0 16.0 0.00 0.06 0.00 85 1018.4
20260506204528 72 18 9.0 17.0 0.00 0.06 0.00 84 1018.3
20260506203031 71 57 9.0 17.0 0.00 0.06 0.00 84 1018.3
20260506201536 73 35 10.0 20.0 0.00 0.06 0.00 83 1018.6
20260506200017 75 72 9.0 17.0 0.00 0.06 0.00 78 1018.5
20260506194522 79 338 8.0 17.0 0.00 0.06 0.00 71 1018.6
20260506193026 80 354 11.0 17.0 0.00 0.06 0.00 68 1018.6
20260506191528 79 19 9.0 18.0 0.00 0.06 0.00 70 1019.0
20260506190030 79 8 8.0 15.0 0.00 0.06 0.00 70 1019.3
20260506184510 79 325 9.0 17.0 0.00 0.06 0.00 70 1019.6
20260506183006 77 43 10.0 18.0 0.00 0.06 0.00 72 1019.8
20260506181512 78 53 10.0 17.0 0.00 0.06 0.00 72 1019.9
20260506180021 76 51 9.0 18.0 0.00 0.06 0.00 74 1020.1
20260506174532 75 8 8.0 17.0 0.00 0.06 0.00 75 1020.4
20260506173004 75 49 7.0 13.0 0.00 0.06 0.00 76 1020.7
20260506171505 74 58 6.0 13.0 0.00 0.06 0.00 78 1021.0
20260506170012 74 12 7.0 13.0 0.00 0.06 0.00 77 1021.0
20260506164514 73 20 8.0 16.0 0.00 0.06 0.00 80 1021.3
20260506163023 73 39 7.0 14.0 0.00 0.06 0.00 79 1021.2
20260506161507 72 27 6.0 14.0 0.00 0.06 0.00 81 1021.2
20260506160009 71 70 8.0 13.0 0.00 0.06 0.00 83 1021.3
20260506154514 71 4 7.0 14.0 0.00 0.06 0.00 84 1021.4